Home   Weather   Kingston   Past weeks
Flag for Norfolk Island

Past Weather in Kingston, Norfolk Island — Yesterday and Last 2 Weeks

Now
61 °F

Passing clouds.


Feels Like: 61 °F
Forecast: 69 / 61 °F
Wind: 3 mph from Southeast

Location: Norfolk Island Airport

Current Time: May 20, 2019 at 11:46:32 pm

Latest Report: May 20, 2019 at 11:00 pm


Visibility: N/A

Pressure: 30.24 "Hg

Humidity: 83%

Dew Point: 55 °F

Location of KingstonLocation

Past Weather in Kingston — Graph

°F

Kingston Temperature Yesterday

Maximum temperature yesterday: 70 °F (at 12:00 pm)
Minimum temperature yesterday: 63 °F (at 12:00 am)
Average temperature yesterday: 65 °F

High & Low Weather Summary for the Past Weeks

 TemperatureHumidityPressure
High75 °F (May 9, 11:30 am)100% (May 10, 6:08 am)30.30 "Hg (May 10, 6:08 am)
Low61 °F (May 15, 6:30 am)49% (May 14, 4:30 pm)29.92 "Hg (May 12, 4:00 am)
Average67 °F76%30.16 "Hg
* Reported May 5 10:00 pm — May 20 10:30 pm, Kingston. Weather by CustomWeather, © 2019

Note: Actual official high and low records may vary slightly from our data, if they occured in-between our weather recording intervals... More about our weather records

Advertising

Kingston Weather History for the Previous 24 Hours

Scroll right to see more
 ConditionsComfort  
Time TempWeatherWind HumidityBarometerVisibility
10:30 pm
Mon, May 20
61 °FClear.5 mph83%30.27 "HgN/A
10:00 pm61 °FPassing clouds.5 mph88%30.27 "HgN/A
9:30 pm61 °FPartly cloudy.5 mph88%30.27 "HgN/A
9:00 pm63 °FPartly cloudy.5 mph77%30.27 "HgN/A
8:30 pm63 °FPartly cloudy.5 mph83%30.27 "HgN/A
8:00 pm64 °FSprinkles. Partly cloudy.3 mph83%30.24 "HgN/A
7:30 pm63 °FPartly cloudy.No wind77%30.24 "HgN/A
7:00 pm63 °FClear.3 mph73%30.24 "HgN/A
6:30 pm63 °FClear.3 mph73%30.24 "HgN/A
6:00 pm63 °FClear.3 mph73%30.24 "HgN/A
5:30 pm63 °FClear.5 mph73%30.21 "HgN/A
5:00 pm64 °FSunny.7 mph68%30.21 "HgN/A
4:30 pm66 °FSunny.7 mph64%30.21 "HgN/A
4:00 pm66 °FPassing clouds.7 mph68%30.21 "HgN/A
3:30 pm68 °FScattered clouds.8 mph64%30.21 "HgN/A
3:00 pm66 °FPassing clouds.8 mph68%30.21 "HgN/A
2:30 pm68 °FPassing clouds.8 mph64%30.21 "HgN/A
2:00 pm70 °FPassing clouds.7 mph60%30.21 "HgN/A
1:30 pm68 °FPassing clouds.8 mph60%30.21 "HgN/A
1:00 pm68 °FPassing clouds.8 mph64%30.21 "HgN/A
12:30 pm68 °FPassing clouds.7 mph60%30.24 "HgN/A
12:00 pm68 °FPassing clouds.7 mph60%30.24 "HgN/A
11:30 am68 °FPassing clouds.8 mph60%30.24 "HgN/A
11:00 am68 °FPassing clouds.8 mph60%30.27 "HgN/A
10:30 am68 °FPassing clouds.8 mph64%30.27 "HgN/A
10:00 am66 °FPassing clouds.7 mph68%30.27 "HgN/A
9:30 am68 °FPassing clouds.8 mph64%30.27 "HgN/A
9:00 am68 °FPassing clouds.7 mph64%30.27 "HgN/A
8:30 am66 °FPassing clouds.7 mph68%30.27 "HgN/A
8:00 am64 °FScattered clouds.6 mph73%30.27 "HgN/A
7:30 am64 °FSunny.5 mph78%30.27 "HgN/A
7:00 am63 °FSunny.6 mph77%30.27 "HgN/A
6:30 am61 °FScattered clouds.6 mph83%30.27 "HgN/A
6:00 am61 °FPassing clouds.6 mph83%30.24 "HgN/A
5:30 am63 °FPassing clouds.6 mph77%30.24 "HgN/A
5:00 am63 °FPassing clouds.6 mph77%30.24 "HgN/A
4:30 am63 °FPassing clouds.6 mph77%30.24 "HgN/A
4:00 am63 °FOvercast.6 mph77%30.21 "HgN/A
3:30 am61 °FPartly cloudy.5 mph83%30.24 "HgN/A
3:00 am61 °FPartly cloudy.3 mph83%30.24 "HgN/A
2:30 am61 °FClear.5 mph83%30.24 "HgN/A
2:00 am61 °FClear.1 mph83%30.24 "HgN/A
1:30 am63 °FPassing clouds.7 mph83%30.24 "HgN/A
1:00 am63 °FPartly cloudy.6 mph83%30.24 "HgN/A
12:30 am63 °FPartly cloudy.5 mph77%30.24 "HgN/A
12:00 am63 °FPartly cloudy.6 mph77%30.27 "HgN/A
11:30 pm
Sun, May 19
63 °FPartly cloudy.6 mph77%30.27 "HgN/A
11:00 pm63 °FPassing clouds.6 mph77%30.27 "HgN/A
Weather by CustomWeather, © 2019

See weather overview